Zurück zum Katalog

GLOBALSTAR M059

AktivKommunikationLEO
NORAD 25944·PAYLOAD·🇺🇸 United States

Gestartet Oct 18, 1999 von Baikonur Cosmodrome

Loading…

Nächste Überflüge (nächste 24 Stunden)

TLE

AktuellSource: Space-Track

Epoche: Sep 14, 2026, 11:09 UTC

1 25944U 99058B   26257.46460500 -.00000070  00000-0  20229-3 0  9998
2 25944  52.0019  58.1737 0001084  99.0331 293.7641 12.00002154628588

Verfolge GLOBALSTAR M059 in Echtzeit mit AllMySat

Download on the App Store